Location: Newark
(41.8083°N, 72.2500°W)
Time: 12:27:46
(UTC+00:00)

Altair - Pass Details

Date: 02 December 2021
Orbit: 1501 x 1683 km, 47.2° (Epoch: 27 January)

Event Time Altitude Azimuth Distance (km) Brightness Sun altitude
Rises 22:03:45 0° 256° (WSW) 4,754 12.3 -8.4°
Reaches altitude 10° 22:06:53 10° 258° (WSW) 3,747 11.1 -8.9°
Maximum altitude 22:16:19 73° 343° (NNW) 1,582 7.6 -10.6°
Enters shadow 22:24:27 14° 67° (ENE) 3,314 8.6 -12.0°
